Regional Weather Roundup
Issued by NWS Bismarck, ND

Home | Current Version | Previous Version | Text Only | Print | Product List | Glossary On
Versions: 1 2 3 4 5 6 7 8 9 10 11 12 13 14 15 16 17 18 19 20 21 22 23 24 25 26 27 28 29 30 31 32 33 34 35 36 37 38 39 40 41 42 43 44 45 46 47 48 49 50
579
ASUS43 KBIS 281110
RWRBIS

NWR BROADCAST TEXT
NATIONAL WEATHER SERVICE BISMARCK ND
600 AM CDT TUE MAR 28 2017

NOTE: "FAIR" INDICATES FEW OR NO CLOUDS BELOW 12,000 FEET WITH NO
SIGNIFICANT WEATHER AND/OR OBSTRUCTIONS TO VISIBILITY.


CITY           SKY/WX    TMP DP  RH WIND       PRES   REMARKS
WILLISTON      CLOUDY    37  35  92 E9        30.03S
MINOT          CLOUDY    35  33  92 E12       30.08S
MINOT AFB      NOT AVBL
BISMARCK       FAIR      33  30  88 NE7       30.06R
DICKINSON      FAIR      30  27  88 E3        29.99R
GARRISON         N/A     34  33  96 E12       30.05R
HETTINGER ARPT FAIR      29  27  92 CALM      30.01S
JAMESTOWN      FOG       31  31 100 CALM      30.10R VSB 1/4
HAZEN          FOG       32  32 100 NE5       30.08R VSB<1/4
LINTON           N/A     32  32 100 E10       30.06S
MANDAN         PTSUNNY   32  32 100 NE9       30.05R
STANLEY        FOG       32  32 100 E13       30.08R VSB 1/4
TIOGA          LGT RAIN  34  34 100 E21       30.05S
WATFORD CITY   CLOUDY    36  36 100 E5        30.03R
$$

CITY           SKY/WX    TMP DP  RH WIND       PRES   REMARKS
GRAND FORKS    CLOUDY    33  32  96 N8        30.12R
GRAND FORKS AF CLOUDY    33  32  99 N8        30.12S
DEVILS LAKE    MOCLDY    33  31  92 NE6       30.12R
FARGO          FOG       32  32 100 N6        30.10R VSB 1/4
CAVALIER       FAIR      32  30  93 N9        30.15S
GRAFTON        FAIR      32  32 100 N8        30.15S
GWINNER        FOG       32  32 100 MISG      30.09S VSB 0
LANGDON        CLOUDY    32  30  93 NE10      30.13R
ROLLA          CLOUDY    32  32 100 NE9       30.13S
$$

CITY           SKY/WX    TMP DP  RH WIND       PRES   REMARKS
ABERDEEN       FAIR      29  32 100 NE5       30.07S
MOBRIDGE       FAIR      40  30  67 E9        30.00S
BUFFALO          N/A     39  33  79 SE3       29.92R
RAPID CITY     FAIR      41  33  73 N9        29.93S
GLASGOW        FAIR      34  31  88 E7        30.01R
SIDNEY         MOCLDY    37  36  96 N9        30.00S FOG
WOLF POINT     CLOUDY    36  34  92 E9        30.02R FOG
GLENDIVE       FAIR      34  33  96 N3        29.98R
MILES CITY     MOCLDY    41  34  76 N7        29.96R
BAKER          CLOUDY    39  33  79 SE10      29.98R
$$

CITY           SKY/WX    TMP DP  RH WIND       PRES   REMARKS
BILLINGS       RAIN      40  38  93 NW10      30.05R FOG
GREAT FALLS    FAIR      30  24  78 SW10      30.08R
REGINA         MOCLDY    32  30  93 E9        30.07S
ESTEVAN        CLOUDY    32  32 100 E15       30.07R
$$





USA.gov is the U.S. government's official web portal to all federal, state and local government web resources and services.